Weather reports worldwide

Advertisment
Murcia/San Javier, Spain (8433): temperature & dewpoint: 06.12.2019 16:00:00 - 12.12.2019 16:00:00 (CET)Murcia/San Javier, Spain (8433): wind speed: 06.12.2019 16:00:00 - 12.12.2019 16:00:00 (CET)Murcia/San Javier, Spain (8433): wind direction: 06.12.2019 16:00:00 - 12.12.2019 16:00:00 (CET)Murcia/San Javier, Spain (8433): reduced air pressure: 06.12.2019 16:00:00 - 12.12.2019 16:00:00 (CET)Murcia/San Javier, Spain (8433): visibility: 06.12.2019 16:00:00 - 12.12.2019 16:00:00 (CET)
Date & Time tt [°C] td [°C] ff [km/h] ff [kn] dd ppp [hPa] vv [km]
12.12.2019 16:00:00 16,1 3,8 18 10 W 1017,7 30
12.12.2019 15:00:00 16,9 3,2 28 15 WNW 1017,7 -
12.12.2019 14:00:00 17,6 2,2 15 8 W 1019,0 -
12.12.2019 13:00:00 17,1 3,5 15 8 WSW 1020,1 40
12.12.2019 12:00:00 16,0 3,0 9 5 WNW 1021,6 -
12.12.2019 11:00:00 15,9 4,6 9 5 W 1022,0 -
12.12.2019 10:00:00 14,8 3,4 13 7 WSW 1022,2 40
12.12.2019 09:00:00 10,7 3,8 15 8 W 1022,1 -
12.12.2019 08:00:00 10,8 3,1 16 9 WSW 1022,1 -
12.12.2019 07:00:00 11,6 2,9 11 6 NW 1021,7 30
12.12.2019 06:00:00 11,5 2,5 15 8 WSW 1022,3 -
12.12.2019 05:00:00 11,2 2,3 9 5 SW 1022,6 -
12.12.2019 04:00:00 12,4 1,9 26 14 WNW 1022,5 -
12.12.2019 03:00:00 12,3 1,7 16 9 WNW 1023,3 -
12.12.2019 02:00:00 12,6 2,4 22 12 W 1023,2 -
12.12.2019 01:00:00 13,1 2,8 24 13 WNW 1023,6 -
12.12.2019 00:00:00 13,5 3,6 26 14 NW 1023,7 -
11.12.2019 23:00:00 13,3 4,4 34 18 NW 1022,7 -
11.12.2019 22:00:00 13,8 4,5 35 19 NW 1022,6 -
11.12.2019 21:00:00 14,1 4,5 34 18 NW 1022,7 -
11.12.2019 20:00:00 15,0 4,9 37 20 NW 1021,8 -
11.12.2019 19:00:00 16,2 6,4 34 18 NNW 1020,6 -
11.12.2019 18:00:00 17,3 6,3 21 11 NW 1019,4 -
11.12.2019 17:00:00 19,1 6,0 16 9 WNW 1018,6 -
11.12.2019 16:00:00 19,3 10,6 11 6 WSW 1018,9 40
11.12.2019 15:00:00 20,2 10,0 13 7 SSW 1018,4 -
11.12.2019 14:00:00 20,1 9,2 11 6 SSW 1019,0 -
11.12.2019 13:00:00 19,1 5,6 13 7 SSW 1019,7 40
11.12.2019 12:00:00 17,6 5,6 13 7 WSW 1020,9 -
11.12.2019 11:00:00 14,4 5,0 13 7 W 1021,7 -
11.12.2019 10:00:00 10,1 4,4 15 8 W 1021,5 40
11.12.2019 09:00:00 7,7 3,5 13 7 WSW 1021,6 -
11.12.2019 08:00:00 7,4 2,7 15 8 WSW 1021,5 -
11.12.2019 07:00:00 7,1 2,6 15 8 W 1021,6 30
11.12.2019 06:00:00 5,8 3,0 13 7 WSW 1021,6 -
11.12.2019 05:00:00 6,0 2,6 13 7 WSW 1022,1 -
11.12.2019 04:00:00 6,1 3,4 9 5 W 1022,4 -
11.12.2019 03:00:00 7,5 4,1 11 6 WSW 1022,4 -
11.12.2019 02:00:00 8,2 4,4 8 4 SW 1022,8 -
11.12.2019 01:00:00 8,2 5,1 11 6 W 1023,3 -
11.12.2019 00:00:00 9,0 5,9 18 10 W 1023,8 -
10.12.2019 23:00:00 7,6 6,5 11 6 W 1023,6 -
10.12.2019 22:00:00 8,2 7,1 8 4 WNW 1024,1 -
10.12.2019 21:00:00 8,9 7,7 13 7 NW 1024,2 -
10.12.2019 20:00:00 9,7 7,8 8 4 WNW 1024,0 -
10.12.2019 19:00:00 11,4 8,3 8 4 NNW 1024,0 -
10.12.2019 18:00:00 14,9 9,6 4 2 ESE 1024,2 -
10.12.2019 17:00:00 17,2 9,4 8 4 E 1024,1 -
10.12.2019 16:00:00 17,8 10,7 8 4 ESE 1024,3 40
10.12.2019 15:00:00 20,9 7,5 9 5 NNE 1024,5 -
10.12.2019 14:00:00 20,9 2,3 13 7 NW 1024,7 -
10.12.2019 13:00:00 19,6 1,9 15 8 WNW 1025,5 40
10.12.2019 12:00:00 18,5 1,8 21 11 WNW 1026,1 -
10.12.2019 11:00:00 17,7 0,9 15 8 WNW 1026,6 -
10.12.2019 10:00:00 15,7 1,3 18 10 W 1026,0 30
10.12.2019 09:00:00 12,3 2,1 9 5 WSW 1026,3 -
10.12.2019 08:00:00 11,8 1,4 21 11 W 1025,4 -
10.12.2019 07:00:00 11,5 1,7 18 10 W 1025,4 25
10.12.2019 06:00:00 10,9 2,5 13 7 W 1025,7 -
10.12.2019 05:00:00 13,0 2,4 18 10 W 1025,5 -
10.12.2019 04:00:00 11,9 3,7 8 4 WNW 1026,2 -
10.12.2019 03:00:00 13,3 3,3 18 10 SW 1026,2 -
10.12.2019 02:00:00 13,4 5,5 15 8 NW 1026,7 -
10.12.2019 01:00:00 12,5 6,3 5 3 SW 1027,4 -
10.12.2019 00:00:00 13,1 5,3 9 5 WSW 1027,8 -
09.12.2019 23:00:00 14,3 4,3 15 8 NW 1027,0 -
09.12.2019 22:00:00 14,9 3,7 18 10 WNW 1026,6 -
09.12.2019 21:00:00 14,1 4,2 5 3 W 1026,5 -
09.12.2019 20:00:00 13,7 7,0 11 6 NW 1025,9 -
09.12.2019 19:00:00 15,2 8,7 5 3 W 1025,3 -
09.12.2019 18:00:00 16,8 7,2 15 8 W 1024,6 -
09.12.2019 17:00:00 19,7 7,2 9 5 WNW 1024,5 -
09.12.2019 16:00:00 21,4 5,4 18 10 W 1024,5 40
09.12.2019 15:00:00 21,4 6,4 21 11 WSW 1024,5 -
09.12.2019 14:00:00 21,3 6,3 21 11 WNW 1025,2 -
09.12.2019 13:00:00 19,9 6,5 31 17 NW 1025,3 40
09.12.2019 12:00:00 18,7 7,8 34 18 NW 1025,9 -
09.12.2019 11:00:00 18,0 8,7 35 19 NW 1025,9 -
09.12.2019 10:00:00 16,4 9,1 29 16 NW 1025,3 30
09.12.2019 09:00:00 15,3 8,8 22 12 WNW 1024,7 -
09.12.2019 08:00:00 14,8 8,9 18 10 NW 1024,7 -
09.12.2019 07:00:00 15,4 9,1 22 12 NW 1023,9 25
09.12.2019 06:00:00 15,9 9,6 15 8 WNW 1023,4 -
09.12.2019 05:00:00 16,0 9,6 16 9 W 1022,8 -
09.12.2019 04:00:00 16,2 9,9 18 10 NW 1023,1 -
09.12.2019 03:00:00 15,8 9,7 16 9 W 1023,2 -
09.12.2019 02:00:00 15,5 9,6 21 11 W 1023,1 -
09.12.2019 01:00:00 13,2 9,6 15 8 WSW 1023,5 -
09.12.2019 00:00:00 11,1 9,5 8 4 WSW 1023,7 -
08.12.2019 23:00:00 11,5 10,1 11 6 W 1023,3 -
08.12.2019 22:00:00 12,9 10,8 15 8 W 1023,3 -
08.12.2019 21:00:00 12,6 10,1 15 8 W 1023,5 -
08.12.2019 20:00:00 12,4 10,5 16 9 W 1023,5 -
08.12.2019 19:00:00 14,0 12,7 16 9 SW 1022,9 -
08.12.2019 18:00:00 14,8 12,1 15 8 SW 1022,6 -
08.12.2019 17:00:00 17,5 11,3 13 7 SW 1022,3 -
08.12.2019 16:00:00 19,2 10,6 15 8 SSW 1022,3 25
08.12.2019 15:00:00 19,3 11,9 18 10 SSW 1022,6 -
08.12.2019 14:00:00 20,4 10,2 16 9 WSW 1023,1 -
08.12.2019 13:00:00 19,4 9,7 16 9 WSW 1024,0 25
08.12.2019 12:00:00 17,2 10,8 9 5 WSW 1025,1 -
08.12.2019 11:00:00 15,9 10,5 9 5 SSW 1025,4 -
08.12.2019 10:00:00 12,2 9,8 9 5 W 1024,9 25
08.12.2019 09:00:00 9,0 7,6 13 7 W 1024,6 -
08.12.2019 08:00:00 7,3 6,6 11 6 WSW 1024,3 -
08.12.2019 07:00:00 8,0 7,2 15 8 W 1024,0 20
08.12.2019 06:00:00 9,0 8,1 15 8 W 1023,8 -
08.12.2019 05:00:00 7,7 7,6 11 6 W 1023,9 -
08.12.2019 04:00:00 7,5 7,4 11 6 WSW 1024,4 -
08.12.2019 03:00:00 7,9 7,8 8 4 WSW 1024,6 -
08.12.2019 02:00:00 8,8 8,7 8 4 W 1024,7 -
08.12.2019 01:00:00 9,8 9,7 9 5 WNW 1024,9 -
08.12.2019 00:00:00 9,5 9,2 11 6 WNW 1025,3 -
07.12.2019 23:00:00 10,0 9,8 9 5 WNW 1025,1 -
07.12.2019 22:00:00 10,1 9,8 11 6 WNW 1024,9 -
07.12.2019 21:00:00 10,6 9,8 8 4 NW 1024,6 -
07.12.2019 20:00:00 11,7 10,8 8 4 NNW 1024,3 -
07.12.2019 19:00:00 13,7 12,6 13 7 NE 1023,7 -
07.12.2019 18:00:00 14,3 12,5 15 8 ENE 1023,2 -
07.12.2019 17:00:00 15,5 12,0 15 8 NE 1022,9 -
07.12.2019 16:00:00 16,7 11,8 11 6 NE 1022,5 55
07.12.2019 15:00:00 17,0 11,1 11 6 NE 1022,5 -
07.12.2019 14:00:00 16,9 11,2 13 7 NNE 1022,8 -
07.12.2019 13:00:00 16,9 11,3 13 7 NNE 1023,4 55
07.12.2019 12:00:00 16,2 10,9 9 5 N 1024,2 -
07.12.2019 11:00:00 15,8 11,1 9 5 N 1024,2 -
07.12.2019 10:00:00 13,4 10,7 11 6 NNW 1023,8 65
07.12.2019 09:00:00 11,8 9,9 13 7 NNW 1023,3 -
07.12.2019 08:00:00 10,6 9,5 15 8 NNW 1022,9 -
07.12.2019 07:00:00 10,9 9,5 9 5 N 1022,9 40
07.12.2019 06:00:00 11,1 9,7 9 5 NW 1022,4 -
07.12.2019 05:00:00 11,5 10,4 15 8 NNW 1022,4 -
07.12.2019 04:00:00 11,2 10,7 11 6 NNW 1022,7 -
07.12.2019 03:00:00 11,8 11,2 13 7 NNW 1022,8 -
07.12.2019 02:00:00 12,5 11,6 15 8 N 1022,7 -
07.12.2019 01:00:00 12,6 11,7 13 7 N 1023,0 -
07.12.2019 00:00:00 14,2 12,8 15 8 N 1023,3 -
06.12.2019 23:00:00 14,8 13,5 22 12 NE 1023,3 -
06.12.2019 22:00:00 14,9 13,3 22 12 NE 1023,3 -
06.12.2019 21:00:00 14,9 13,1 21 11 NE 1023,2 -
06.12.2019 20:00:00 14,9 12,8 26 14 ENE 1022,9 -
06.12.2019 19:00:00 14,9 12,8 29 16 ENE 1021,9 -
06.12.2019 18:00:00 15,0 12,9 28 15 ENE 1021,5 -
06.12.2019 17:00:00 15,3 12,8 28 15 ENE 1021,2 -
06.12.2019 16:00:00 16,1 12,8 28 15 ENE 1021,3 55

tt = temperature
td = dewpoint
ff = wind speed
dd = wind direction
ppp = reduced air pressure
vv = visibility

Next stations